• In Belarus
  • List of Countries
  • For 7 days
  • Water Temperature
  • Weather Map
  • Weather Widgets
  • user-avatar
    Login

    Hourly Weather Etchmiadzin

    Today, 15 September, Sunday

    Time Temperature Precipitation Wind Pressure Humidity
    00:00 +19°C° 0 mm 1 mps 689 mmHg 54%
    01:00 +19°C° 0 mm 1 mps 689 mmHg 56%
    02:00 +18°C° 0 mm 1 mps 688 mmHg 57%
    03:00 +18°C° 0 mm 1 mps 688 mmHg 58%
    04:00 +18°C° 0 mm 1 mps 688 mmHg 59%
    05:00 +16°C° 0 mm 1 mps 688 mmHg 59%
    06:00 +16°C° 0 mm 1 mps 688 mmHg 60%
    07:00 +19°C° 0 mm 1 mps 689 mmHg 53%
    08:00 +22°C° 0 mm 1 mps 689 mmHg 46%
    09:00 +24°C° 0 mm 1 mps 689 mmHg 38%
    10:00 +25°C° 0 mm 1 mps 689 mmHg 36%
    11:00 +26°C° 0 mm 2 mps 689 mmHg 33%
    12:00 +28°C° 0 mm 2 mps 689 mmHg 30%
    13:00 +28°C° 0 mm 2 mps 689 mmHg 29%
    14:00 +29°C° 0 mm 2 mps 689 mmHg 27%
    15:00 +30°C° 0 mm 2 mps 689 mmHg 27%
    16:00 +28°C° 0.1 mm 2 mps 689 mmHg 32%
    17:00 +26°C° 0.1 mm 1 mps 688 mmHg 38%
    18:00 +24°C° 0.1 mm 1 mps 688 mmHg 44%
    19:00 +23°C° 0.1 mm 1 mps 689 mmHg 48%
    20:00 +21°C° 0.1 mm 2 mps 689 mmHg 53%
    21:00 +20°C° 0.1 mm 2 mps 690 mmHg 58%
    22:00 +20°C° 0.2 mm 2 mps 689 mmHg 61%
    23:00 +20°C° 0.2 mm 2 mps 689 mmHg 63%

    Tomorrow, 16 September, Monday

    Time Temperature Precipitation Wind Pressure Humidity
    00:00 +19°C° 0.2 mm 2 mps 689 mmHg 66%
    01:00 +19°C° 0.5 mm 2 mps 689 mmHg 69%
    02:00 +19°C° 0.5 mm 1 mps 689 mmHg 72%
    03:00 +19°C° 0.5 mm 1 mps 689 mmHg 75%
    04:00 +19°C° 0.1 mm 1 mps 688 mmHg 75%
    05:00 +18°C° 0.1 mm 1 mps 688 mmHg 75%
    06:00 +16°C° 0.1 mm 0 mps 688 mmHg 76%
    07:00 +20°C° 0 mm 1 mps 688 mmHg 68%
    08:00 +22°C° 0 mm 1 mps 688 mmHg 61%
    09:00 +24°C° 0 mm 1 mps 688 mmHg 54%
    10:00 +25°C° 0 mm 2 mps 688 mmHg 49%
    11:00 +27°C° 0 mm 2 mps 688 mmHg 44%
    12:00 +28°C° 0 mm 3 mps 687 mmHg 39%
    13:00 +29°C° 0 mm 3 mps 687 mmHg 36%
    14:00 +30°C° 0 mm 3 mps 687 mmHg 33%
    15:00 +31°C° 0 mm 3 mps 687 mmHg 30%
    16:00 +29°C° 0 mm 2 mps 686 mmHg 34%
    17:00 +28°C° 0 mm 2 mps 686 mmHg 38%
    18:00 +26°C° 0 mm 1 mps 686 mmHg 42%
    19:00 +25°C° 0 mm 1 mps 686 mmHg 45%
    20:00 +24°C° 0 mm 2 mps 687 mmHg 47%
    21:00 +24°C° 0 mm 2 mps 687 mmHg 49%
    22:00 +23°C° 0 mm 2 mps 687 mmHg 51%
    23:00 +21°C° 0 mm 2 mps 687 mmHg 52%

    Day after tomorrow, 17 September, Tuesday

    Time Temperature Precipitation Wind Pressure Humidity
    00:00 +21°C° 0 mm 2 mps 686 mmHg 53%
    01:00 +21°C° 0 mm 1 mps 686 mmHg 54%
    02:00 +21°C° 0 mm 1 mps 686 mmHg 55%
    03:00 +20°C° 0 mm 1 mps 686 mmHg 55%
    04:00 +20°C° 0 mm 1 mps 686 mmHg 55%
    05:00 +20°C° 0 mm 1 mps 685 mmHg 55%
    06:00 +19°C° 0 mm 1 mps 685 mmHg 55%
    07:00 +22°C° 0 mm 1 mps 686 mmHg 49%
    08:00 +24°C° 0 mm 1 mps 686 mmHg 42%
    09:00 +27°C° 0 mm 1 mps 686 mmHg 35%
    10:00 +28°C° 0 mm 2 mps 686 mmHg 32%
    11:00 +29°C° 0 mm 2 mps 686 mmHg 28%
    12:00 +31°C° 0 mm 2 mps 686 mmHg 24%
    13:00 +31°C° 0 mm 2 mps 685 mmHg 23%
    14:00 +32°C° 0 mm 2 mps 685 mmHg 22%
    15:00 +32°C° 0 mm 2 mps 685 mmHg 20%
    16:00 +31°C° 0 mm 2 mps 684 mmHg 23%
    17:00 +29°C° 0 mm 1 mps 684 mmHg 25%
    18:00 +28°C° 0 mm 1 mps 684 mmHg 28%
    19:00 +27°C° 0 mm 2 mps 685 mmHg 31%
    20:00 +25°C° 0 mm 4 mps 686 mmHg 35%
    21:00 +23°C° 0 mm 5 mps 686 mmHg 39%
    22:00 +22°C° 0 mm 4 mps 686 mmHg 42%
    23:00 +21°C° 0 mm 3 mps 686 mmHg 44%

    18 September, Wednesday

    Time Temperature Precipitation Wind Pressure Humidity
    00:00 +20°C° 0 mm 2 mps 686 mmHg 47%
    01:00 +20°C° 0 mm 2 mps 686 mmHg 47%
    02:00 +19°C° 0 mm 2 mps 686 mmHg 48%
    03:00 +19°C° 0 mm 2 mps 687 mmHg 48%
    04:00 +18°C° 0 mm 2 mps 687 mmHg 49%
    05:00 +18°C° 0 mm 2 mps 687 mmHg 49%
    06:00 +18°C° 0 mm 2 mps 687 mmHg 50%
    07:00 +20°C° 0 mm 2 mps 688 mmHg 45%
    08:00 +23°C° 0 mm 2 mps 688 mmHg 40%
    09:00 +25°C° 0 mm 2 mps 689 mmHg 35%
    10:00 +26°C° 0 mm 2 mps 689 mmHg 32%
    11:00 +28°C° 0 mm 2 mps 689 mmHg 28%
    12:00 +29°C° 0 mm 1 mps 689 mmHg 25%
    13:00 +30°C° 0 mm 1 mps 689 mmHg 23%
    14:00 +30°C° 0 mm 1 mps 689 mmHg 21%
    15:00 +31°C° 0 mm 1 mps 688 mmHg 19%
    16:00 +29°C° 0 mm 1 mps 688 mmHg 23%
    17:00 +27°C° 0 mm 1 mps 688 mmHg 26%
    18:00 +26°C° 0 mm 1 mps 688 mmHg 29%
    19:00 +25°C° 0 mm 1 mps 688 mmHg 29%
    20:00 +24°C° 0 mm 1 mps 688 mmHg 29%
    21:00 +23°C° 0 mm 2 mps 688 mmHg 29%
    22:00 +23°C° 0 mm 1 mps 688 mmHg 30%
    23:00 +22°C° 0 mm 1 mps 688 mmHg 30%

    19 September, Thursday

    Time Temperature Precipitation Wind Pressure Humidity
    00:00 +21°C° 0 mm 1 mps 688 mmHg 31%
    01:00 +21°C° 0 mm 1 mps 688 mmHg 33%
    02:00 +21°C° 0 mm 1 mps 688 mmHg 34%
    03:00 +20°C° 0 mm 1 mps 688 mmHg 35%
    04:00 +20°C° 0 mm 1 mps 687 mmHg 36%
    05:00 +19°C° 0 mm 1 mps 687 mmHg 38%
    06:00 +19°C° 0 mm 1 mps 687 mmHg 39%
    07:00 +21°C° 0 mm 1 mps 687 mmHg 35%
    08:00 +24°C° 0 mm 1 mps 688 mmHg 30%
    09:00 +27°C° 0 mm 1 mps 688 mmHg 25%
    10:00 +28°C° 0 mm 1 mps 688 mmHg 24%
    11:00 +30°C° 0 mm 1 mps 688 mmHg 22%
    12:00 +31°C° 0 mm 1 mps 688 mmHg 20%
    13:00 +32°C° 0 mm 1 mps 688 mmHg 18%
    14:00 +32°C° 0 mm 1 mps 687 mmHg 17%
    15:00 +33°C° 0 mm 1 mps 687 mmHg 15%
    16:00 +31°C° 0 mm 1 mps 687 mmHg 18%
    17:00 +29°C° 0 mm 1 mps 687 mmHg 21%
    18:00 +27°C° 0 mm 1 mps 686 mmHg 24%
    19:00 +26°C° 0 mm 1 mps 686 mmHg 24%
    20:00 +25°C° 0 mm 2 mps 687 mmHg 25%
    21:00 +25°C° 0 mm 2 mps 687 mmHg 25%
    22:00 +24°C° 0 mm 2 mps 687 mmHg 27%
    23:00 +23°C° 0 mm 2 mps 687 mmHg 30%

    20 September, Friday

    Time Temperature Precipitation Wind Pressure Humidity
    00:00 +21°C° 0 mm 2 mps 686 mmHg 33%
    01:00 +21°C° 0 mm 2 mps 686 mmHg 35%
    02:00 +20°C° 0 mm 2 mps 686 mmHg 38%
    03:00 +19°C° 0 mm 2 mps 686 mmHg 40%
    04:00 +20°C° 0 mm 1 mps 686 mmHg 43%
    05:00 +19°C° 0 mm 1 mps 685 mmHg 45%
    06:00 +19°C° 0 mm 1 mps 685 mmHg 47%
    07:00 +22°C° 0 mm 1 mps 686 mmHg 40%
    08:00 +24°C° 0 mm 1 mps 686 mmHg 34%
    09:00 +27°C° 0 mm 1 mps 686 mmHg 28%
    10:00 +29°C° 0 mm 2 mps 686 mmHg 25%
    11:00 +30°C° 0 mm 2 mps 686 mmHg 22%
    12:00 +33°C° 0 mm 3 mps 686 mmHg 19%
    13:00 +33°C° 0 mm 3 mps 685 mmHg 17%
    14:00 +34°C° 0 mm 3 mps 685 mmHg 16%
    15:00 +35°C° 0 mm 2 mps 684 mmHg 14%
    16:00 +32°C° 0 mm 2 mps 684 mmHg 16%
    17:00 +30°C° 0 mm 2 mps 683 mmHg 18%
    18:00 +28°C° 0 mm 2 mps 683 mmHg 20%
    19:00 +28°C° 0 mm 2 mps 683 mmHg 20%
    20:00 +27°C° 0 mm 2 mps 683 mmHg 21%
    21:00 +26°C° 0 mm 2 mps 683 mmHg 22%
    22:00 +25°C° 0 mm 2 mps 683 mmHg 23%
    23:00 +25°C° 0 mm 2 mps 683 mmHg 24%
    Show more